RH
23 23 26 22 22 26 23 25 32 30 27 28 31 31 39 70 57 29 28 33 35 38 47 49 54 61 68 82 99 94 92 94 97 91 91 92 91 96 80 78 66 49 76 86
18 22 27 38 23 21 22 29 45 24 32 32 28 28 26 36 30 31 27 31 31 35 47 49 52 58 64 76 92 94 93 86 92 89 93 99 84 82 80 73 66 59 72 90
18 16 21 34 22 23 35 34 51 26 30 28 29 34 29 23 23 26 29 27 28 32 40 46 51 55 60 75 85 96 95 90 88 92 92 96 91 88 84 90 75 64 64 95
15 13 22 30 22 26 29 29 21 26 31 44 30 40 37 28 23 23 24 32 28 34 39 45 48 52 55 65 75 94 99 98 89 95 90 89 97 84 82 83 81 84 71 66
15 13 18 24 18 20 30 45 23 22 27 29 34 42 46 26 25 22 23 23 26 30 36 42 44 52 55 60 67 81 96 96 95 91 90 94 98 85 78 74 85 77 78 70
12 11 13 15 14 22 22 22 22 23 29 46 67 32 46 47 19 19 20 21 22 27 33 37 42 48 55 58 62 78 89 95 94 94 91 92 92 88 93 77 78 82 74 79
14 15 13 16 20 20 22 22 34 58 84 94 68 24 26 17 17 15 17 21 22 27 31 36 41 45 50 58 61 77 89 94 97 92 93 93 97 96 95 82 77 79 83 79
17 17 14 16 18 21 21 20 62 56 34 65 57 29 25 17 17 16 17 20 22 25 28 35 41 46 49 57 62 67 87 90 95 95 94 91 99 90 81 75 83 85 87 86
12 14 10 13 15 15 21 22 20 29 17 26 60 48 21 17 17 17 16 19 21 24 28 34 40 46 51 57 61 63 82 87 83 71 86 94 95 85 69 60 74 73 67 69
8 10 9 12 14 16 16 20 26 33 38 49 47 48 86 22 20 17 16 17 20 24 29 33 38 43 50 55 59 62 73 79 66 57 62 94 92 76 66 67 65 73 73 82
6 7 8 9 16 18 19 21 18 25 20 30 26 57 62 26 18 18 16 16 18 22 29 30 38 41 46 50 55 61 67 70 63 57 54 60 64 58 60 59 61 67 70 78
5 6 7 6 8 12 12 14 13 19 24 51 37 30 29 15 16 17 16 18 18 23 28 31 37 40 45 48 51 57 65 66 69 50 50 52 57 58 68 92 77 65 74 77
5 6 7 6 8 11 13 10 10 11 39 85 92 34 22 15 17 17 16 18 20 23 27 31 35 39 43 46 49 53 60 75 74 72 53 56 62 86 86 94 73 69 76 80
12 6 6 7 8 10 17 14 11 13 22 28 46 26 50 17 17 16 16 20 23 26 28 30 32 37 42 46 50 52 56 65 68 72 68 69 85 92 96 68 64 70 74 83
8 8 6 5 5 5 7 12 12 16 17 22 19 18 14 16 16 16 18 22 23 27 29 29 31 36 44 49 52 54 56 60 65 72 78 86 90 86 64 66 72 78 91 91
7 9 7 8 5 5 6 6 11 12 15 16 14 14 10 11 16 16 18 21 24 24 27 27 29 36 44 52 57 59 59 63 66 78 76 84 80 88 66 69 82 91 96 64
10 8 9 11 8 7 8 6 6 8 12 15 15 12 11 13 15 16 17 20 22 21 25 25 28 36 43 53 61 65 65 72 73 78 79 89 95 94 82 86 91 94 58 56
12 12 10 12 10 14 7 5 5 5 6 7 8 11 10 10 13 16 16 18 20 21 21 24 27 35 43 51 61 63 70 76 62 77 88 95 88 76 76 90 88 89 87 86
9 12 14 15 14 11 10 8 6 6 6 5 8 10 10 9 12 17 17 16 20 22 21 22 26 34 44 50 61 65 72 87 87 69 87 80 68 66 75 89 88 77 86 94
9 10 14 16 18 18 10 7 6 7 10 5 5 7 8 8 13 13 17 18 17 20 21 22 24 30 44 49 60 68 78 86 94 94 93 65 63 70 81 85 89 80 91 82
16 15 16 16 18 14 10 7 9 16 14 15 13 10 15 12 10 16 16 18 17 18 21 21 24 29 40 50 58 72 82 87 79 98 75 70 75 78 86 88 72 59 66 79
21 21 18 17 20 21 9 10 13 18 23 25 25 28 30 26 24 25 23 18 19 16 20 21 25 30 42 53 62 75 77 78 87 87 69 69 77 84 88 86 58 61 78 68
15 13 14 13 14 13 11 11 22 22 29 29 29 28 31 30 33 34 32 26 21 17 18 21 26 33 49 52 61 46 44 70 85 66 57 64 76 90 87 84 45 62 72 87
12 10 17 18 13 12 13 25 28 31 32 35 32 30 30 31 32 34 40 38 32 22 20 22 26 35 55 55 66 32 35 37 59 59 58 64 80 93 89 84 48 80 82 79
12 13 15 18 18 19 17 28 29 29 28 33 32 34 32 33 34 38 41 49 43 35 23 25 31 38 55 62 54 66 32 31 40 70 73 78 92 86 86 81 68 73 72 68
16 19 20 22 16 17 21 23 34 31 28 26 29 27 27 30 34 35 42 49 56 44 34 29 35 39 57 72 76 68 47 32 38 82 97 96 98 94 89 77 63 62 66 64
Wind_Speed
19 14 16 13 9 13 12 7 9 16 8 11 12 12 3 11 35 20 21 20 18 17 16 14 12 10 9 9 12 16 16 19 21 21 21 18 13 14 16 22 18 17 12 6
16 17 11 13 18 11 7 15 13 4 7 6 13 12 14 22 16 21 21 24 18 15 17 17 15 13 11 10 10 14 15 17 21 22 19 16 17 13 14 13 19 20 14 9
21 12 19 21 16 10 9 16 16 6 7 10 12 13 13 16 21 19 19 17 20 18 19 20 18 16 13 12 13 15 14 17 18 15 20 19 15 14 14 11 15 16 16 12
20 12 11 8 16 10 9 12 5 5 7 7 15 9 15 17 22 19 20 33 25 17 17 19 20 18 16 14 14 14 16 15 14 17 15 16 18 17 9 12 10 10 17 18
17 20 11 23 12 9 4 14 18 8 10 13 16 6 7 24 23 22 25 26 27 23 20 20 20 20 19 17 15 15 13 13 14 15 17 16 14 14 13 11 9 11 10 12
22 17 11 17 8 13 16 8 12 13 9 10 8 13 8 4 12 18 23 21 22 26 20 20 19 20 20 17 17 16 16 13 12 10 9 10 15 14 12 16 12 9 7 9
18 19 12 6 9 3 9 15 5 2 2 4 24 11 7 7 7 13 21 25 23 27 23 22 21 22 22 20 18 17 17 14 14 14 11 10 10 13 13 15 11 10 8 8
18 17 17 15 20 11 13 12 5 9 6 9 21 4 5 3 15 8 19 24 24 25 25 23 23 22 22 21 21 18 17 17 16 14 14 12 12 13 14 12 10 8 9 7
17 20 20 15 18 18 12 10 13 21 19 4 4 19 10 12 8 13 19 24 26 26 27 25 24 23 23 23 22 21 18 16 13 13 16 14 14 14 12 12 10 6 5 6
20 14 16 13 10 11 17 2 6 7 9 4 10 9 4 7 13 13 16 26 28 27 25 27 25 24 23 23 23 22 19 17 16 15 16 13 14 14 12 11 9 5 4 5
23 15 12 15 13 16 14 17 15 15 17 8 9 6 18 16 8 17 17 18 24 25 27 27 26 24 24 23 23 23 22 20 17 19 17 16 18 15 14 13 8 5 2 1
20 17 16 20 18 18 21 18 20 13 10 7 16 4 12 3 11 17 21 17 17 18 22 26 26 26 25 25 25 24 23 23 20 23 22 20 17 13 9 9 8 5 3 2
17 16 16 18 18 17 13 20 21 18 6 6 8 9 16 6 10 14 18 18 19 19 22 25 26 27 26 25 25 25 24 26 25 28 23 19 16 13 12 11 10 5 3 4
5 17 17 16 17 16 18 20 22 19 10 9 24 7 24 10 8 13 19 18 19 20 23 25 26 27 26 25 25 25 24 26 24 20 23 22 16 16 15 13 9 7 9 8
11 18 19 19 21 17 13 16 18 22 14 17 2 7 5 8 13 11 17 19 19 21 24 25 26 28 27 26 26 25 24 24 23 24 25 21 18 17 16 15 10 11 10 9
18 17 18 20 21 19 16 17 16 21 16 15 16 11 7 4 3 18 17 20 21 22 23 25 26 27 28 27 28 27 25 24 24 23 18 22 22 19 20 17 15 12 11 12
17 15 17 16 15 15 19 20 17 17 17 15 17 13 6 1 5 14 21 21 21 21 25 26 27 28 29 28 29 28 27 27 28 27 23 20 21 24 19 17 16 14 12 14
9 15 13 11 16 21 13 15 19 19 19 18 18 11 8 5 5 13 20 24 22 23 26 27 28 27 28 27 27 26 25 26 27 27 24 25 28 24 22 20 16 14 15 14
13 12 11 13 13 15 9 16 15 15 15 21 17 15 13 10 9 5 16 23 27 26 28 29 28 28 29 30 30 30 29 29 27 27 28 27 26 25 22 20 17 17 17 16
17 15 12 9 16 19 13 16 12 7 14 15 19 18 14 16 8 9 17 23 28 27 29 28 28 28 28 29 29 32 32 32 29 29 30 27 26 24 22 20 19 19 17 15
15 15 17 15 14 13 11 13 4 12 2 7 4 6 8 15 12 5 5 14 27 27 29 29 29 31 33 34 34 35 34 33 31 28 29 28 27 24 22 21 21 21 19 18
16 17 16 15 19 22 18 11 11 5 5 4 5 7 8 12 9 6 8 4 20 25 29 30 30 31 36 38 39 38 36 32 31 32 28 29 27 25 23 21 22 22 23 21
15 14 13 17 14 21 13 19 6 5 7 7 6 7 8 7 6 6 7 8 10 27 27 29 30 32 38 42 43 38 34 34 33 33 30 29 27 26 24 24 24 24 24 19
19 23 6 11 13 1 7 5 5 6 5 4 5 7 6 6 7 6 7 7 8 18 24 27 29 34 36 40 43 37 37 36 35 32 32 30 29 28 25 24 25 22 22 20
12 9 17 11 19 9 12 7 6 3 4 3 3 4 6 7 7 8 8 9 8 4 21 28 30 34 39 42 43 36 40 39 36 30 33 33 30 29 26 24 24 22 21 21
15 14 9 9 18 14 10 11 13 4 2 2 3 3 5 6 7 9 10 10 10 8 8 25 30 34 36 36 35 38 40 41 36 31 29 30 28 28 26 26 28 27 23 27
Wind_Direction
202 225 224 211 164 244 199 258 227 227 165 216 221 211 271 319 291 226 179 188 183 193 180 181 180 175 168 174 175 181 189 190 189 196 194 189 174 191 190 186 201 192 211 205
213 233 108 27 261 236 234 257 358 233 132 233 257 251 198 196 225 230 231 174 185 196 174 185 181 178 178 180 183 178 188 191 192 197 195 189 171 188 191 200 205 211 213 220
241 213 159 174 209 216 23 308 185 294 166 229 262 256 263 220 213 234 189 207 177 201 176 186 183 181 178 179 176 179 189 189 189 194 179 185 189 179 192 210 209 209 218 230
223 229 157 334 249 271 193 271 269 271 252 229 210 278 219 243 209 190 220 170 188 188 188 186 184 186 182 179 171 178 181 186 184 192 185 190 181 191 216 204 229 219 230 234
220 237 213 207 232 162 290 138 270 251 247 262 201 246 208 219 213 191 193 217 185 186 199 183 189 182 178 178 175 172 181 183 189 197 194 191 193 193 193 192 213 225 223 233
242 222 216 237 268 158 251 243 246 249 282 250 294 223 42 113 194 186 186 205 192 183 186 184 187 178 176 181 180 180 174 180 183 188 190 199 190 192 190 194 214 222 213 245
216 232 211 264 201 195 239 247 275 119 49 22 290 246 156 97 164 187 182 186 184 172 180 181 183 179 179 184 183 182 177 182 185 185 178 186 188 181 179 173 185 195 209 222
218 218 205 173 248 222 214 249 139 272 279 221 253 224 199 90 155 218 167 165 181 185 177 179 181 179 180 183 182 183 184 190 193 193 177 189 171 169 169 161 191 209 206 220
214 227 192 202 218 249 222 225 231 246 278 349 1 265 47 132 181 173 157 167 178 178 172 184 176 180 181 181 182 181 187 188 193 190 178 171 159 173 182 188 190 181 171 168
242 264 203 168 245 223 265 308 274 345 304 24 268 359 341 308 166 176 175 179 175 176 169 183 176 180 182 181 181 182 184 181 187 175 178 174 175 170 176 186 176 195 203 229
239 252 229 192 192 232 207 245 250 217 248 267 279 80 236 257 213 175 184 185 174 177 172 189 176 178 180 179 180 183 183 179 188 179 158 166 159 160 165 173 220 236 234 205
220 240 241 246 194 212 261 249 223 238 254 2 316 117 279 22 183 170 183 179 162 169 178 179 177 178 180 182 184 184 185 185 186 176 165 168 169 186 217 217 217 219 240 252
217 229 250 225 212 211 248 240 260 260 110 93 287 292 293 113 142 165 165 158 156 167 174 176 178 179 182 183 185 184 190 192 189 201 200 205 209 213 206 211 214 240 219 239
286 242 226 245 231 202 200 236 236 254 234 231 217 195 224 108 143 164 150 153 163 177 174 178 180 180 182 184 184 185 188 198 188 204 209 215 206 202 206 212 215 221 234 223
230 236 243 248 265 266 231 203 231 224 239 245 152 289 318 111 146 175 156 166 172 183 178 181 184 180 181 182 182 184 186 199 189 193 198 200 200 213 212 214 208 220 207 203
221 246 255 252 246 255 250 261 211 228 243 258 279 289 356 82 111 166 177 171 176 184 184 183 185 180 184 185 183 185 187 189 182 198 196 193 199 208 204 205 202 195 196 183
222 225 236 236 239 251 241 245 244 251 225 221 254 249 125 130 206 186 182 178 181 186 185 183 185 186 186 187 185 185 186 186 188 183 189 193 191 203 204 194 192 189 185 180
224 244 247 237 235 237 237 235 223 248 251 239 245 246 205 175 204 206 195 181 186 187 185 185 188 186 188 187 187 183 187 193 188 183 190 195 203 204 202 195 191 181 175 171
229 256 237 246 242 258 224 238 245 220 228 239 245 222 234 210 220 222 217 199 185 193 192 190 190 190 187 186 186 183 186 188 191 189 197 205 205 203 202 194 190 180 173 172
234 221 253 233 250 240 229 238 227 272 242 243 235 238 236 218 211 237 193 218 192 194 198 194 191 189 189 188 188 185 185 193 193 191 204 204 203 204 198 196 189 179 175 169
219 225 219 230 246 248 260 289 154 225 260 45 295 269 300 272 199 114 271 198 203 191 198 197 193 191 190 186 186 188 189 196 197 196 208 201 201 198 197 193 187 182 171 176
200 222 225 229 238 237 252 310 212 55 73 33 44 29 11 16 58 20 335 222 200 198 199 198 191 190 185 187 187 188 194 197 194 205 203 200 197 194 197 195 187 183 178 190
253 223 232 231 229 225 262 262 61 18 90 54 43 31 24 36 29 359 333 308 220 202 203 197 193 190 184 192 194 195 196 197 200 208 205 201 196 194 196 193 191 183 189 181
227 248 268 278 267 252 194 107 95 93 99 85 45 25 29 34 20 348 336 308 299 211 202 198 194 188 186 194 197 199 198 204 209 207 205 200 193 196 194 191 193 184 184 188
254 288 229 236 265 333 188 167 165 129 93 105 52 28 24 10 6 346 333 322 303 267 216 201 197 192 193 198 199 192 202 206 211 199 200 198 190 196 196 190 192 189 193 196
266 260 248 240 237 241 247 213 179 210 239 303 299 329 351 354 346 342 338 326 306 264 221 207 204 200 195 198 197 190 200 205 205 189 187 188 188 187 192 188 195 188 202 197